EHI
0 0 0 1 1 0 0 0 0 0 1 2 5 11 21 30 33 30 26 26 27 27 29 30 26 21 22 23 24 24 23 20 17 15 12 10 9 9 6 6 7 6 3 1
0 0 0 1 1 1 1 1 0 0 0 2 6 15 25 32 32 29 26 25 26 29 32 32 27 22 20 21 22 22 21 17 15 13 11 9 8 6 5 5 6 5 3 1
0 0 0 1 1 1 2 2 1 1 1 5 12 21 29 32 32 29 27 26 27 32 36 35 30 23 20 21 22 20 18 15 12 12 10 8 5 4 5 5 4 3 2 1
0 0 0 0 0 1 3 4 4 6 9 14 22 28 30 31 32 32 31 30 30 34 37 35 30 24 23 25 25 22 19 16 14 13 12 9 6 5 4 3 1 1 1 0
0 0 0 0 1 2 3 6 8 12 19 26 32 34 30 31 36 38 37 34 31 32 35 33 28 25 25 25 25 23 20 17 15 14 12 10 7 4 2 1 0 0 0 0
0 0 0 0 1 2 3 6 10 18 26 32 35 32 30 35 41 43 41 36 32 31 31 29 27 25 25 23 21 19 17 14 12 11 10 8 5 3 1 0 0 0 0 0
0 0 0 1 3 2 2 5 13 22 29 33 32 29 31 37 42 43 42 37 33 30 26 24 25 26 25 22 17 14 13 11 10 8 7 5 4 2 1 0 0 0 0 0
0 0 0 2 5 4 4 10 19 26 32 35 36 34 35 36 39 43 42 37 33 28 23 20 21 24 24 18 13 11 11 10 8 6 4 3 3 2 1 0 0 0 0 0
2 2 2 4 6 8 10 18 26 32 34 38 41 38 34 33 37 40 38 35 32 28 23 17 16 18 16 12 11 11 10 9 7 5 4 3 3 1 0 0 0 0 0 0
4 5 6 8 10 12 15 21 28 33 34 35 36 33 29 28 29 29 29 28 28 26 21 15 13 12 10 9 11 12 11 9 7 6 5 3 2 1 0 0 0 0 0 0
3 5 8 12 13 14 17 22 26 29 28 26 25 24 22 19 18 17 18 20 20 20 16 12 11 10 10 10 12 12 11 9 7 6 4 2 1 0 0 0 0 0 0 0
2 3 7 11 13 15 18 21 24 25 23 20 17 16 14 11 10 9 10 10 11 12 11 9 9 11 12 12 12 11 10 9 7 5 2 0 0 0 0 0 0 0 0 0
2 3 6 10 13 15 18 19 17 18 18 15 11 9 8 6 5 4 3 3 4 6 6 6 8 10 11 12 11 10 9 8 5 3 1 0 0 0 0 0 0 0 0 0
1 3 7 11 14 16 16 14 10 10 11 8 6 5 5 4 3 2 1 0 1 2 3 4 6 7 7 7 8 9 8 6 3 1 0 0 0 0 0 0 0 0 0 0
0 2 6 10 13 14 12 10 7 6 6 5 3 3 3 3 1 1 0 0 0 0 1 2 3 3 2 2 4 5 5 4 2 0 0 0 0 0 0 0 0 0 0 0
1 2 4 6 8 9 8 5 3 3 3 3 2 2 2 1 0 0 0 0 0 0 1 1 1 1 1 1 1 2 2 2 0 0 0 0 0 0 0 0 0 0 0 0
0 1 2 3 3 4 3 2 1 1 1 1 1 0 0 0 0 0 0 0 0 0 0 0 0 0 1 2 1 1 0 0 0 0 0 0 0 0 0 0 0 0 0 0
0 0 1 1 1 1 0 0 0 0 0 0 0 0 0 0 0 0 0 0 0 0 0 0 0 0 1 2 1 0 0 0 0 0 0 0 0 0 0 0 0 0 0 0
0 0 0 0 0 0 0 0 0 0 0 0 0 0 0 0 0 0 0 0 0 0 0 0 0 0 0 0 0 0 0 0 0 0 0 0 0 0 0 0 0 0 0 0
0 0 0 0 0 0 0 0 0 0 0 0 0 0 0 0 0 0 0 0 0 0 0 0 0 0 0 0 0 0 0 0 0 0 0 0 0 0 0 0 0 0 0 0
0 0 0 0 0 0 0 0 0 0 0 0 0 0 0 0 0 0 0 0 0 0 0 0 0 0 0 0 0 0 0 0 0 0 0 0 0 0 0 0 0 0 0 0
0 0 0 0 0 0 0 0 0 0 0 0 0 0 0 0 0 0 0 0 0 0 0 0 0 0 0 0 0 0 0 0 0 0 0 0 0 0 0 0 0 0 0 0
0 0 0 0 0 0 0 0 0 0 0 0 0 0 0 0 0 0 0 0 0 0 0 0 0 0 0 0 0 0 0 0 0 0 0 0 0 0 0 0 0 0 0 0
0 0 0 0 0 0 0 0 0 0 0 0 0 0 0 0 0 0 0 0 0 0 0 0 0 0 0 0 0 0 0 0 0 0 0 0 0 0 0 0 0 0 0 0
0 0 0 0 0 0 0 0 0 0 0 0 0 0 0 0 0 0 0 0 0 0 0 0 0 0 0 0 0 0 0 0 0 0 0 0 0 0 0 0 0 0 0 0
0 0 0 0 0 0 0 0 0 0 0 0 0 0 0 0 0 0 0 0 0 0 0 0 0 0 0 0 0 0 0 0 0 0 0 0 0 0 0 0 0 0 0 0
0 0 0 0 0 0 0 0 0 0 0 0 0 0 0 0 0 0 0 0 0 0 0 0 0 0 0 0 0 0 0 0 0 0 0 0 0 0 0 0 0 0 0 0
Wind_Speed
4 4 3 4 5 7 6 8 9 9 8 9 8 7 5 5 5 6 6 6 7 7 6 6 6 5 5 5 5 5 5 5 3 3 3 3 4 3 3 4 4 3 4 4
1 1 3 2 3 6 4 4 4 3 7 7 3 2 3 5 7 7 7 7 7 6 7 6 6 6 6 5 5 5 5 4 4 4 4 4 4 3 4 4 4 4 5 5
3 1 3 2 4 5 4 3 6 7 7 2 2 4 6 6 7 7 7 6 7 6 6 6 5 5 5 5 6 6 5 4 4 5 5 4 4 5 4 4 4 5 5 5
4 4 4 8 2 3 4 2 3 4 4 4 4 3 2 3 5 5 5 5 6 5 5 5 5 5 5 5 6 6 5 4 4 5 5 5 5 5 4 4 4 5 5 5
5 4 3 4 1 3 3 1 1 2 1 2 4 4 2 0 2 4 4 4 4 5 5 6 6 6 7 6 6 6 5 5 5 5 6 6 5 5 4 5 5 5 4 5
5 5 6 7 2 1 4 2 2 2 3 4 5 3 3 1 2 3 4 4 4 5 6 6 6 7 8 6 5 4 4 4 5 5 6 6 6 5 4 5 5 5 6 5
5 3 6 5 3 1 4 6 2 3 4 4 3 4 2 3 4 5 5 6 6 6 6 5 6 7 8 6 5 4 5 5 5 6 6 6 6 5 5 6 6 6 6 5
5 4 6 3 1 4 5 2 2 2 3 3 3 3 4 4 5 6 7 7 7 6 6 5 6 7 7 5 5 5 6 6 5 5 5 6 6 5 5 6 6 5 5 5
6 6 4 2 2 2 2 2 1 2 2 5 6 5 4 4 5 5 6 6 6 7 7 5 4 6 7 5 6 6 7 6 6 6 5 5 6 6 5 4 4 3 3 3
1 3 2 2 1 1 1 2 2 3 5 5 6 6 6 5 4 5 5 5 5 7 7 5 4 4 5 6 7 7 7 6 6 6 6 5 4 4 4 4 4 3 3 3
1 3 2 2 2 1 3 5 6 5 4 5 7 7 6 6 5 4 4 4 4 5 6 5 4 4 5 6 7 8 7 6 5 5 6 5 4 3 3 3 2 3 2 2
4 5 3 3 2 1 4 4 5 6 5 4 5 6 5 5 4 4 4 4 4 5 5 4 5 5 4 5 7 8 7 6 5 4 4 5 5 5 7 5 6 6 4 4
4 2 2 2 1 2 4 4 3 4 5 4 3 5 5 4 4 4 4 4 4 4 4 4 5 4 4 5 6 6 6 6 5 5 5 5 5 5 4 5 7 6 5 6
2 2 1 0 2 3 5 5 5 4 3 4 4 5 5 5 4 4 3 3 4 5 5 5 5 4 4 5 6 6 6 6 6 4 5 4 4 4 4 4 3 2 3 4
0 2 3 2 3 4 4 5 6 4 2 3 3 4 5 5 4 3 3 4 5 5 4 5 5 4 4 5 6 7 6 5 4 4 4 4 4 4 4 4 4 3 2 2
1 3 4 4 3 3 3 4 4 3 2 2 2 3 3 4 4 4 3 4 4 4 4 4 4 4 5 6 6 5 5 8 7 5 5 4 4 4 4 4 3 3 2 2
3 3 3 3 3 3 3 3 3 3 3 3 3 3 4 4 4 4 3 3 3 3 3 4 5 5 5 6 6 5 5 6 8 6 5 5 4 4 4 4 3 2 2 2
4 4 5 5 5 4 4 4 4 4 4 4 4 4 4 4 4 4 3 3 3 3 2 3 4 5 5 5 5 5 5 5 4 5 4 4 4 4 4 4 3 3 2 2
2 3 3 3 3 3 3 3 3 3 3 4 5 4 4 3 4 4 4 4 4 3 2 3 6 5 5 5 6 4 5 5 5 4 4 5 5 4 4 4 4 3 3 2
2 3 3 2 2 3 2 2 2 3 3 4 4 4 3 3 4 4 4 3 2 2 3 4 5 4 4 5 6 4 5 5 5 5 4 4 4 4 4 4 4 4 3 3
3 3 3 2 1 1 1 2 3 3 3 4 5 5 5 4 4 5 4 2 1 2 4 5 4 3 4 5 6 4 5 5 5 5 5 4 4 4 4 4 4 4 4 3
2 2 1 1 1 0 0 1 3 3 3 3 4 4 5 4 4 3 2 2 3 4 3 3 3 4 5 6 4 4 4 5 4 4 4 4 4 4 4 4 4 4 4 4
1 1 1 1 1 0 1 1 2 3 4 4 4 5 5 4 4 4 3 2 3 4 3 2 4 6 7 5 4 4 4 4 4 4 4 4 4 4 4 5 4 4 4 4
1 1 1 1 1 2 1 1 2 2 3 2 3 4 4 4 2 1 2 4 5 5 3 3 6 7 6 3 4 4 4 4 4 4 4 3 3 3 4 4 4 4 4 4
1 1 1 2 1 1 1 2 3 3 3 3 3 3 2 2 3 3 3 4 5 5 3 3 5 6 4 3 4 4 3 3 4 4 4 4 4 4 4 4 4 4 3 3
1 1 0 0 1 1 2 2 2 2 3 3 2 2 2 3 4 3 3 3 4 4 3 2 3 3 3 3 3 3 3 3 3 3 3 3 3 3 3 3 4 3 3 3
1 1 1 1 1 1 2 2 2 2 3 3 3 2 2 3 3 3 3 3 3 3 3 2 2 3 3 3 3 2 2 2 3 3 3 3 3 3 3 3 3 2 2 2
Wind_Direction
204 201 169 172 169 166 167 173 175 217 222 244 237 223 209 176 157 153 161 165 170 169 164 160 157 158 156 154 150 146 142 144 148 135 119 107 96 87 80 76 70 69 67 56
190 198 181 172 182 174 181 170 197 212 247 250 248 177 167 167 170 178 182 178 174 169 163 164 166 162 156 154 151 143 143 146 135 122 112 105 98 88 82 78 76 74 68 61
199 251 104 233 208 177 172 178 171 200 234 222 188 190 191 182 179 188 187 178 174 175 169 165 165 162 163 160 149 144 143 139 132 126 118 112 106 92 82 75 77 73 66 66
131 112 193 239 254 163 148 178 212 227 236 202 200 182 164 164 179 189 182 177 175 169 160 151 148 146 142 141 142 139 137 134 129 125 117 105 98 92 82 75 75 72 67 69
121 153 239 286 217 151 146 246 240 202 183 130 115 85 30 96 157 177 176 170 171 165 154 144 143 140 132 129 129 131 135 135 132 127 121 114 105 100 96 92 81 73 68 64
120 139 205 233 254 222 116 279 261 176 165 146 118 120 252 238 117 110 109 121 130 129 123 128 131 129 125 124 125 128 128 127 123 118 118 117 114 106 97 97 92 84 72 61
133 165 244 252 284 102 156 233 232 183 177 158 166 193 194 120 113 113 108 105 112 119 120 124 126 128 129 129 136 130 120 115 112 115 117 117 110 104 107 101 93 84 78 62
133 151 239 288 83 158 210 222 167 165 164 149 134 104 97 102 111 113 108 105 112 118 113 112 124 131 131 138 135 123 123 121 115 111 114 115 113 108 107 107 100 91 83 68
181 202 239 268 226 236 172 158 171 151 137 135 123 104 91 89 98 105 110 111 112 117 112 108 120 136 141 140 129 125 120 117 113 105 97 105 115 118 112 107 109 104 96 84
278 286 298 315 317 1 124 135 112 116 118 115 113 111 103 92 86 89 96 106 110 114 117 118 117 114 123 127 130 128 126 124 120 116 107 99 100 109 114 115 116 114 112 104
263 282 338 351 352 36 83 92 95 91 93 112 118 117 117 114 107 98 95 96 110 121 127 129 120 113 122 131 133 131 131 128 124 122 123 114 98 84 105 102 132 139 137 135
213 227 199 242 284 98 97 94 105 106 93 87 111 120 115 114 114 111 111 114 115 116 122 125 124 121 124 134 138 137 137 137 135 132 126 124 117 89 59 75 89 104 116 125
222 227 207 236 52 89 99 91 79 96 121 116 103 113 115 116 114 113 117 122 127 126 125 127 128 126 130 134 138 139 141 142 138 138 137 138 135 132 116 69 68 80 96 110
198 135 98 74 96 90 103 99 89 75 85 107 117 111 109 108 108 115 124 133 126 122 124 129 127 126 134 134 132 133 132 137 138 139 140 140 139 136 134 133 119 74 58 92
62 141 157 125 91 88 94 102 99 94 92 85 96 107 114 119 122 121 120 118 113 116 125 129 127 124 124 130 133 135 136 137 135 131 130 130 131 129 127 128 126 119 100 76
123 104 117 114 114 118 112 112 124 139 140 125 115 118 119 120 118 116 118 123 127 141 145 138 134 136 134 133 131 132 136 142 139 137 135 135 135 135 134 134 132 133 138 136
154 168 158 155 164 170 159 149 153 162 164 155 147 127 117 117 118 123 132 133 135 145 150 146 143 141 141 140 137 137 136 144 143 140 145 149 148 148 147 146 149 156 170 174
207 199 179 171 174 181 175 164 166 168 171 166 142 136 145 153 159 161 154 133 121 116 125 138 135 133 136 139 136 136 139 143 147 149 150 153 152 151 152 157 166 173 173 163
161 152 141 152 171 183 187 186 179 171 163 153 152 163 170 167 163 154 145 144 150 156 157 134 133 135 142 148 143 140 143 145 146 148 152 153 153 157 165 173 180 186 185 181
112 117 120 130 149 163 176 188 163 154 160 153 151 154 161 166 159 150 145 158 188 178 156 149 143 143 149 152 144 145 150 154 156 158 160 166 171 174 179 185 190 192 195 198
98 102 107 120 121 125 164 174 170 173 167 162 165 172 175 167 158 154 152 167 193 142 143 146 146 150 151 150 147 150 156 161 166 170 174 179 181 181 185 191 194 195 197 200
82 97 108 129 130 107 119 160 161 158 151 156 156 154 153 152 150 147 154 175 170 153 148 155 157 157 154 150 151 154 162 168 172 173 177 181 182 184 189 191 193 195 194 194
79 90 92 98 123 130 35 103 140 144 150 163 167 165 164 160 159 157 166 167 151 154 151 158 158 154 151 147 150 157 163 169 176 180 182 185 189 190 191 194 195 194 192 193
70 68 66 72 97 102 91 77 101 113 125 134 146 148 144 138 125 120 135 143 145 142 141 155 157 156 151 151 156 161 168 177 182 186 186 188 190 189 190 192 191 191 194 197
87 84 84 99 113 141 144 116 101 104 111 108 107 112 122 130 137 140 134 140 143 136 129 148 156 158 160 158 161 167 177 186 187 185 184 184 186 186 186 187 189 189 192 197
82 86 84 190 186 157 140 132 130 132 127 117 96 91 97 102 115 122 125 133 136 133 135 143 156 156 156 157 161 168 177 181 181 180 179 181 182 182 182 181 182 186 190 192
77 75 79 63 56 87 119 126 130 134 135 133 121 111 112 114 119 123 125 128 132 134 137 140 142 142 144 146 149 156 165 167 163 160 161 163 164 167 170 170 172 173 177 183